User: anonymous   Login
Location: Oracle State Park
(32.6095°N, 110.7330°W)
Time: 14:22:31
(UTC-07:00)
Language:

POLYITAN 1 - Orbit

View from above orbital plane
View from above orbital plane
View from above satellite
View from above satellite

Ground track
Ground track

The orbit data is extracted from the following two-line orbital elements,

1 40042U 14033AJ  19140.72663150  .00000285  00000-0  36597-4 0  9995
2 40042  97.9145  60.7501 0015447 139.9757 220.2601 14.88638393266929
Epoch (UTC): 20 May 2019 17:26:20
Eccentricity: 0.0015447
inclination: 97.9145°
perigee height: 591 km
apogee height: 613 km
right ascension of ascending node: 60.7501°
argument of perigee: 139.9757°
revolutions per day: 14.88638393
mean anomaly at epoch: 220.2601°
orbit number at epoch: 26692

The dashed part of the orbit path shows where the satellite is in the earth's shadow,  

DLR